Theta_e
349 350 348 347 348 347 347 347 342 342 345 347 347 350 351 350 349 345 344 343 341 344 345 345 348 351 353 348 344 344 348 350 350 351 353 347 349 349 349 343 343 341 349
348 350 348 350 349 347 347 346 346 344 340 345 344 351 352 351 348 345 347 345 346 350 352 349 350 348 351 349 344 343 350 346 350 352 352 352 350 348 349 347 343 346 351
348 351 351 350 351 347 346 346 346 346 345 346 346 351 352 351 352 350 351 346 348 352 352 351 351 351 351 347 349 350 349 344 349 352 351 348 349 348 349 348 342 350 350
348 350 351 341 339 345 346 347 347 347 346 346 347 353 352 352 352 351 350 344 347 352 353 352 351 351 350 350 344 346 349 347 343 346 347 347 344 347 349 348 349 345 347
349 347 344 341 338 345 348 351 353 353 348 348 350 352 352 351 352 346 348 346 352 351 352 352 351 350 350 347 342 343 343 347 345 348 347 346 346 345 349 347 340 343 352
347 347 345 342 342 346 343 344 348 353 352 352 348 348 351 352 347 349 351 350 352 351 350 350 349 349 350 349 345 345 341 342 344 347 347 347 347 341 349 351 351 349 349
349 347 350 343 346 347 345 346 347 349 344 343 344 347 352 351 351 351 348 351 351 349 348 348 349 349 348 349 349 348 346 340 346 346 346 346 350 345 348 351 350 346 342
350 348 349 344 344 344 346 341 342 346 340 347 344 345 346 348 351 350 350 349 349 346 347 345 347 348 348 347 349 346 350 339 344 344 345 345 347 346 350 350 349 340 336
348 348 345 345 346 343 346 343 340 340 340 339 337 346 347 353 352 349 344 347 347 347 348 343 345 349 345 342 343 346 350 342 344 341 342 345 341 348 350 347 344 346 348
351 351 346 349 349 349 345 344 346 339 340 340 336 346 346 353 351 346 343 343 350 349 347 348 347 343 342 341 341 343 345 348 346 342 339 345 342 349 351 350 346 345 346
351 352 352 352 352 346 345 346 346 340 340 340 344 344 346 349 348 347 348 345 350 348 346 344 348 344 342 342 340 342 345 348 345 341 338 341 338 341 350 346 347 347 345
351 352 353 352 350 346 346 346 346 341 340 343 345 348 352 352 350 349 347 347 350 345 343 343 344 345 344 346 347 342 348 347 345 343 341 331 335 347 349 346 343 340 341
351 351 351 349 350 346 347 346 344 343 345 345 341 349 351 348 346 346 347 348 351 349 349 349 351 350 348 346 348 346 348 348 345 344 346 333 332 339 350 347 344 345 346
349 348 348 349 351 350 350 349 346 344 346 348 344 349 352 348 346 347 348 349 351 349 349 348 347 347 351 350 347 347 346 346 344 344 348 342 331 338 348 348 344 341 341
345 346 348 349 351 350 350 349 348 349 346 348 348 349 347 344 346 349 349 348 349 348 346 345 349 348 349 348 347 348 348 348 347 345 346 343 335 336 349 350 349 347 347
345 346 348 349 350 350 349 350 348 349 349 348 349 349 351 347 350 349 348 349 347 349 346 349 350 348 349 348 347 348 348 350 352 349 345 346 336 335 346 349 350 347 348
347 347 348 349 348 350 349 351 348 350 349 348 347 348 349 350 351 349 350 351 347 350 350 348 350 349 346 346 350 350 350 349 350 351 347 347 344 337 343 344 345 346 345
350 349 349 349 348 351 350 350 348 348 349 348 346 348 350 350 350 352 351 351 350 351 350 347 348 347 346 346 347 347 347 348 349 348 348 347 348 347 344 340 340 342 343
349 351 350 352 350 351 351 350 348 349 349 348 346 348 349 350 353 352 351 352 353 352 350 348 350 349 346 346 346 348 349 349 350 349 351 349 348 346 346 349 340 341 342
349 351 352 353 353 352 351 350 348 348 349 347 346 348 349 351 353 350 352 354 353 351 349 350 352 348 346 346 345 346 348 349 349 349 350 350 350 349 347 349 350 349 344
349 351 352 353 354 353 352 350 349 346 347 347 345 346 349 352 353 347 352 354 352 351 353 351 349 347 346 346 347 348 348 349 351 351 350 349 350 351 350 350 349 349 351
350 351 353 354 355 354 351 350 349 347 347 347 345 347 348 351 353 353 353 353 352 352 352 351 348 344 344 345 348 349 349 349 349 351 350 348 348 350 351 352 351 351 350
349 352 353 354 355 354 351 351 351 351 349 347 345 347 346 349 352 354 354 353 354 353 352 351 350 348 347 348 349 350 349 352 347 347 351 350 351 349 350 352 353 353 353
349 351 353 355 355 355 353 351 351 350 347 344 346 346 345 347 350 352 353 354 349 353 353 352 351 351 352 348 346 346 350 352 348 346 347 348 348 348 349 349 350 351 354
349 350 352 355 355 354 354 352 352 351 350 348 348 348 350 347 349 350 351 353 353 351 354 355 353 354 353 351 349 348 352 352 352 348 347 346 345 347 348 349 347 349 352
349 351 352 353 354 355 355 354 353 352 349 348 349 349 349 347 347 349 349 352 353 353 355 354 355 356 354 354 352 352 349 347 346 347 347 345 345 345 345 347 350 348 351
Wind_Speed
16 16 16 15 14 14 12 12 14 16 16 17 18 17 16 14 12 12 10 11 9 8 8 8 8 9 8 7 8 9 9 10 10 11 12 13 13 13 13 18 18 15 15
21 18 17 17 15 15 13 13 15 15 16 15 16 14 13 12 10 9 8 7 8 7 8 8 8 8 9 7 8 9 10 10 10 11 12 12 11 11 11 10 14 16 14
23 19 17 17 15 14 14 13 14 15 15 13 14 13 11 11 9 7 6 5 7 6 8 9 9 9 9 8 9 9 11 10 11 10 12 10 9 9 11 11 15 14 13
24 21 19 18 16 14 12 12 13 14 13 12 12 11 11 9 7 6 5 5 6 7 7 8 9 9 10 9 8 10 10 10 12 12 9 9 9 9 10 12 12 14 11
24 22 24 21 18 12 12 12 13 11 11 11 10 10 9 8 7 5 4 6 7 6 7 7 8 8 8 8 9 10 11 11 11 11 8 7 9 9 10 12 12 12 9
23 21 18 20 18 14 12 12 12 10 9 9 9 9 9 8 5 5 6 7 7 7 6 6 7 7 7 8 9 9 8 10 12 10 9 8 5 10 11 10 11 12 10
22 20 18 17 17 13 12 9 9 8 6 5 6 8 8 8 7 7 8 7 6 6 5 5 5 6 7 8 8 8 6 9 8 8 7 8 8 11 10 10 10 8 7
21 20 18 18 16 13 14 14 12 8 11 6 4 6 7 8 9 8 8 7 7 6 6 5 4 6 6 7 7 7 7 10 8 7 7 7 8 10 10 9 8 7 7
20 18 18 19 13 14 13 14 18 13 14 11 8 7 7 8 8 9 7 6 7 6 7 6 7 7 6 5 6 6 7 8 6 5 6 8 8 10 9 7 7 7 7
18 18 17 16 13 13 15 17 18 17 14 13 11 5 6 9 9 8 7 6 5 5 5 5 6 7 7 4 6 6 6 6 5 5 5 6 8 10 8 8 7 7 6
16 15 14 14 14 16 16 16 16 15 12 11 8 6 6 8 8 8 8 7 5 4 5 5 6 6 5 4 3 6 7 6 5 4 5 7 10 10 8 8 7 7 6
18 17 15 12 15 15 14 17 17 15 13 10 9 7 6 6 7 7 7 6 5 5 4 3 5 6 4 6 4 3 6 6 6 4 4 6 10 9 7 6 6 6 5
19 17 16 15 15 15 12 15 13 14 12 13 13 9 7 7 7 6 6 5 5 2 2 1 1 4 5 4 6 5 5 6 5 4 5 6 10 11 8 7 5 5 5
20 18 17 16 14 13 11 12 13 14 13 11 12 10 8 8 8 6 5 3 2 1 1 2 1 2 4 5 5 5 6 5 4 3 5 7 9 10 9 7 6 5 4
20 19 18 16 14 12 11 11 12 12 12 11 12 11 10 8 8 7 4 4 2 1 2 3 2 3 5 4 5 6 6 4 4 4 5 6 9 9 9 7 5 4 4
19 19 17 15 14 13 12 11 12 11 13 12 10 11 11 9 7 7 5 4 3 2 3 4 4 4 2 4 5 5 4 4 4 5 5 6 9 9 9 8 7 5 5
20 19 18 16 15 13 12 12 12 11 12 13 11 11 11 9 8 6 6 5 5 5 4 3 1 1 1 2 3 4 4 3 4 5 6 7 8 9 9 8 8 8 8
19 19 19 17 16 15 13 13 12 12 12 13 13 10 11 10 8 6 6 6 6 5 5 5 3 2 1 2 4 4 3 3 4 5 6 6 7 7 7 7 7 7 6
21 20 21 19 17 16 14 12 12 11 14 14 12 11 11 9 8 6 6 6 6 5 5 5 4 2 1 1 2 3 3 3 4 5 5 6 7 7 6 6 6 7 6
21 21 21 21 19 17 15 13 12 12 13 14 14 11 11 9 8 6 6 5 4 5 4 4 4 2 3 3 5 3 2 3 3 5 5 6 7 7 6 7 5 7 5
20 22 22 22 20 19 17 16 15 15 16 15 14 13 11 10 8 9 5 6 6 4 2 3 3 3 3 1 4 3 4 5 3 4 5 4 6 6 6 7 7 6 7
23 22 23 23 23 22 19 18 16 15 15 16 16 14 13 11 9 7 6 7 7 5 4 4 2 3 2 2 3 4 5 8 5 5 5 3 2 3 5 6 7 8 7
25 26 25 25 24 23 20 19 16 12 11 15 16 16 15 13 11 9 7 7 8 7 6 6 4 2 1 1 1 5 3 4 1 5 3 1 1 0 2 6 6 8 8
28 26 25 25 25 23 23 21 21 19 19 18 18 18 18 16 15 13 10 8 9 7 6 5 5 3 2 2 1 2 3 3 4 3 8 3 1 3 2 2 4 7 9
26 26 26 26 26 24 25 24 23 21 18 16 18 18 19 18 18 16 13 10 9 8 7 6 5 4 2 2 0 0 1 1 0 4 4 3 1 2 3 3 3 4 6
24 23 25 27 28 26 26 26 25 22 20 18 18 17 18 20 20 19 16 14 12 11 9 8 7 7 4 3 2 2 4 4 2 3 4 4 6 3 5 3 3 3 4
Wind_Direction
147 145 143 141 142 153 158 156 149 145 144 144 147 141 138 136 127 123 119 113 99 101 114 122 130 125 122 120 107 102 106 115 116 116 121 116 120 125 121 114 110 114 111
144 144 142 144 144 150 153 150 161 149 148 152 153 152 148 149 143 136 117 99 90 94 111 119 123 128 126 118 111 112 123 121 123 120 122 125 128 131 132 119 123 122 110
143 142 138 143 147 150 157 151 153 158 160 151 152 154 148 152 148 142 116 100 100 105 111 112 107 110 116 119 113 113 132 129 127 135 140 134 134 139 141 127 136 125 121
143 142 146 148 150 152 168 161 147 152 161 158 151 148 148 153 157 147 127 110 113 114 111 106 104 106 113 120 122 123 130 138 143 144 124 150 138 152 147 136 131 130 121
145 147 149 150 155 162 168 159 150 149 152 155 147 152 152 162 166 154 133 129 126 118 107 106 110 107 115 125 128 130 133 145 151 145 153 156 149 162 153 145 134 129 129
150 150 154 154 160 161 171 157 146 143 153 155 158 164 159 167 159 148 149 131 128 124 109 110 110 117 122 134 141 137 135 147 138 152 153 168 155 156 156 146 153 159 152
156 152 157 164 156 162 153 140 140 145 155 171 178 182 170 162 155 147 137 137 131 127 120 120 127 130 138 142 154 156 146 162 147 158 162 172 144 166 163 159 166 169 166
157 161 169 166 163 157 149 161 152 151 162 151 183 183 170 153 147 138 146 143 141 141 137 124 140 146 157 163 172 169 164 144 142 147 158 169 154 161 169 170 179 178 169
158 166 170 172 164 154 156 165 166 171 174 175 169 168 165 145 152 150 150 154 151 160 153 139 135 146 158 171 179 186 182 168 170 174 168 178 180 167 177 179 179 179 174
161 166 173 174 165 160 156 160 167 174 190 180 175 163 171 147 152 152 158 168 167 168 160 154 150 157 155 130 172 179 180 188 193 180 189 161 186 170 182 188 194 194 187
169 170 172 167 162 158 155 167 173 180 198 186 189 180 167 169 164 170 186 183 173 176 165 163 156 172 180 207 181 180 160 186 181 187 184 206 186 188 189 179 185 195 221
174 178 174 170 162 166 160 168 175 189 199 200 189 191 200 178 175 177 184 173 197 214 270 224 201 202 209 208 188 166 197 185 187 181 156 206 181 177 186 199 205 209 208
176 178 176 174 173 177 174 184 192 207 204 211 204 191 194 185 187 185 189 194 197 240 266 16 205 191 198 202 203 194 176 174 185 198 177 196 184 180 184 203 207 208 221
177 182 182 179 178 182 182 188 190 194 200 195 191 195 192 195 194 193 193 188 200 277 245 159 109 204 180 187 174 187 188 195 192 189 194 202 188 184 190 194 196 203 214
181 183 186 185 183 185 185 184 190 200 205 198 185 186 198 199 194 197 187 199 178 92 96 148 102 127 164 171 173 173 178 193 215 212 194 216 191 188 190 201 209 218 227
184 186 188 192 190 187 186 186 192 201 204 204 185 190 200 200 199 192 189 210 203 187 134 124 92 81 170 207 198 198 195 178 180 182 179 187 188 188 192 202 212 238 251
187 186 191 195 194 191 191 190 194 200 201 199 195 209 194 206 204 195 202 209 199 201 196 203 227 217 170 139 183 179 174 176 163 171 176 174 190 193 197 209 212 219 245
187 186 190 193 193 192 193 190 195 197 196 192 200 196 204 207 211 213 210 195 201 205 212 214 203 157 95 122 162 180 197 186 179 178 183 182 183 192 210 217 219 223 235
192 188 191 192 193 194 187 191 197 196 196 196 196 201 202 208 214 197 191 184 186 208 204 210 200 220 212 200 242 234 216 214 200 199 198 195 198 193 193 222 240 235 236
189 193 196 195 194 195 187 189 198 200 199 198 205 204 204 204 206 183 173 180 177 189 206 197 211 229 211 282 279 258 232 199 213 208 200 202 201 200 200 206 229 242 261
195 195 198 198 194 192 193 194 200 202 199 204 205 212 212 207 205 198 171 175 177 195 231 190 209 190 215 289 271 207 164 175 188 185 188 190 194 204 207 215 217 223 236
191 196 197 198 195 193 196 199 204 205 203 206 208 211 212 214 210 210 193 181 177 180 176 182 187 156 185 338 333 241 167 168 137 141 140 131 140 193 217 226 229 230 228
194 196 197 198 197 196 197 196 197 195 203 202 206 212 215 215 216 215 213 208 187 192 190 188 193 203 133 70 353 334 241 82 162 120 142 178 116 165 252 238 235 236 234
198 197 196 196 197 198 196 198 200 204 207 206 209 214 214 214 218 220 222 226 212 196 191 190 195 199 244 92 121 45 20 3 345 150 138 100 63 35 344 276 244 248 241
198 195 195 193 196 196 198 202 205 214 213 207 209 217 216 214 214 221 224 225 232 217 206 191 193 196 204 275 315 80 36 2 120 313 341 43 243 60 357 320 292 279 255
198 191 192 196 195 197 198 203 206 210 207 207 211 211 209 214 216 217 222 225 222 222 219 209 205 207 222 223 262 307 310 315 318 287 275 296 337 305 331 317 292 289 270